www.pogodaiklimat.ru

Погода и климат >> Архив погоды >> Индия >> Okha


ПОГОДА в Okha

  • Прогноз погоды в Okha
  • Монитор погоды в Okha
  • Климат города

АРХИВ ПОГОДЫ в Okha

Время (UTC), дата Ветер
(напр.,м/с)
 
Видим.   Явления Облачность Т
(С)
Тd
(С)
f
(%)
Тe
(С)
Тes
(С)
Комфортность P
(гПа)
Po
(гПа)
Тmin
(С)
Tmax
(С)
R
(мм)
R24
(мм)
S
(см)
03 8.08 З 3 4000 м 10/5 600 м
[Sc Ac trans]
+28.4 +12.6 38 +26 +27 жарко 1001.1 1001.0 +27.5 0.0
06 8.08 З 3 4000 м 9/6 600 м
[Cu Sc Ac trans]
+30.0 0.0 14 +27 +31 жарко 1001.3 1001.0
09 8.08 З 3 4000 м 9/6 600 м
[Cu Sc Ac trans]
+30.6 0.0 14 +28 +31 жарко 999.7 1000.0
12 8.08 З 3 4000 м 10/6 600 м
[Cu Sc As op]
+29.2 +12.2 35 +27 +27 жарко 1000.3 1000.0 +31.0
15 8.08 З 3 4000 м 10/6 600 м
[Sc As op]
+28.6 +24.6 79 +41 +41 опасность
перегрева
1001.7 1002.0
18 8.08 З 3 4000 м 10/6 600 м
[Sc As op]
+28.4 +25.0 82 +41 +41 опасность
перегрева
1002.9 1003.0
21 8.08 З 3 4000 м 10/5 600 м
[Sc As op]
+28.0 +25.2 85 +41 +41 опасность
перегрева
1002.4 1002.0
00 9.08 З 3 4000 м {дождь} 10/6 600 м
[Sc As op]
+27.2 +12.6 40 +39 +39 очень
душно
1002.3 1002.0 2
03 9.08 З 2 4000 м 10/5 300 м
[Frnb As op]
+27.6 0.0 17 +25 +26 комфорт 1004.4 1004.0 +26.9 2
06 9.08 З 2 4000 м {морось} 9/4 600 м
[Cu Sc Ac trans Ci fib]
+28.8 0.0 15 +26 +33 жарко 1005.7 1006.0 0.2
09 9.08 С 3 4000 м 10/6 300 м
[Frnb As op]
+28.6 0.0 16 +26 +27 жарко 1005.2 1005.0 0.2
12 9.08 З 2 4000 м 9/5 600 м
[Cu Sc Ac trans Ci fib]
+28.4 +11.8 36 +26 +27 жарко 1004.3 1004.0 +30.0 0.2
15 9.08 З 2 4000 м 8/4 600 м
[Cu Sc Ac trans]
+27.4 +23.9 81 +38 +38 очень
душно
1005.2 1005.0 0.2
18 9.08 З 2 4000 м 10/6 600 м
[Sc As op]
+27.4 +24.8 86 +39 +39 очень
душно
1006.7 1007.0 0.2
21 9.08 З 2 4000 м 6/6 600 м
[Sc]
+27.0 +24.4 86 +38 +38 очень
душно
1005.3 1005.0 0.2
00 10.08 З 2 4000 м 4/4 600 м
[Sc]
+27.0 +12.1 40 +38 +38 очень
душно
1005.0 1005.0 0.2
03 10.08 З 2 4000 м 9/5 600 м
[Cu Sc Ac trans Ci fib]
+27.6 0.0 17 +25 +27 комфорт 1006.6 1007.0 +26.6 0.2
06 10.08 З 3 4000 м 4/4 600 м
[Cu Sc]
+30.2 0.0 14 +27 +37 жарко 1007.3 1007.0
09 10.08 З 3 4000 м 5/5 600 м
[Cu Sc]
+31.0 0.0 14 +28 +36 жарко 1006.2 1006.0
12 10.08 З 3 4000 м 5/5 600 м
[Cu Sc]
+30.4 0.0 14 +27 +29 жарко 1005.2 1005.0 +31.3
15 10.08 З 3 4000 м 4/4 600 м
[Sc]
+28.6 +12.4 37 +40 +40 очень
душно
1005.5 1006.0
18 10.08 З 4 4000 м 5/5 600 м
[Sc]
+28.2 +24.8 82 +40 +40 очень
душно
1006.7 1007.0
21 10.08 З 5 4000 м 5/5 600 м
[Sc]
+27.6 +24.7 84 +39 +39 очень
душно
1005.2 1005.0
00 11.08 З 5 4000 м 4/4 600 м
[Sc]
+27.6 +12.3 39 +39 +39 очень
душно
1004.7 1005.0
03 11.08 З 5 4000 м 9/6 600 м
[Cu Sc Ac trans]
+27.6 0.0 17 +25 +26 комфорт 1005.3 1005.0 +27.3
06 11.08 З 5 4000 м 5/3 600 м
[Cu Sc Ci fib]
+30.2 0.0 14 +27 +35 жарко 1005.6 1006.0
09 11.08 З 5 4000 м 6/3 600 м
[Cu Sc Ci fib]
+31.0 0.0 14 +28 +35 жарко 1004.1 1004.0
12 11.08 З 5 4000 м 8/5 600 м
[Cu Sc Ci fib]
+30.0 0.0 14 +27 +28 жарко 1002.4 1002.0 +31.3
15 11.08 З 4 4000 м 8/8 600 м
[Cu Sc]
+28.2 +11.9 36 +40 +40 очень
душно
1002.7 1003.0
18 11.08 З 5 4000 м 8/5 600 м
[Sc Ac trans]
+27.8 +24.0 80 +39 +39 очень
душно
1003.5 1004.0
21 11.08 З 5 4000 м 6/6 600 м
[Sc]
+27.6 +24.7 84 +39 +39 очень
душно
1001.6 1002.0
00 12.08 З 6 4000 м 10/6 600 м
[Sc As op]
+26.8 +24.2 86 +37 +37 очень
душно
1000.6 1001.0
03 12.08 З 5 4000 м {дождь} 9/4 600 м
[Cu Sc Ac trans Ci fib]
+26.2 +12.0 41 +24 +25 комфорт 1000.9 1001.0 +25.6 1
06 12.08 З 5 4000 м 5/5 600 м
[Cu Sc]
+29.8 0.0 15 +27 +33 жарко 1000.9 1001.0
09 12.08 З 5 4000 м 5/5 600 м
[Cu Sc]
+30.4 0.0 14 +27 +32 жарко 999.1 999.0
12 12.08 З 5 4000 м 10/5 300 м
[Frnb As op]
+28.4 +12.4 37 +26 +26 жарко 997.9 998.0 +30.9
15 12.08 З 4 4000 м 10/5 300 м
[Frnb As op]
+28.4 +24.7 80 +40 +40 очень
душно
998.0 998.0
18 12.08 З 5 4000 м 10/5 600 м
[Sc As op]
+28.2 +24.5 80 +40 +40 очень
душно
999.0 999.0
21 12.08 З 5 4000 м 4/4 600 м
[Sc]
+28.0 +24.3 80 +39 +39 очень
душно
997.6 998.0
00 13.08 З 5 4000 м 8/8 600 м
[Cu Sc]
+28.0 +12.1 37 +39 +39 очень
душно
997.1 997.0
03 13.08 З 3 4000 м 9/4 600 м
[Cu Sc Ac trans Ci fib]
+28.4 0.0 16 +26 +27 жарко 998.7 999.0 +27.6
06 13.08 З 5 4000 м 9/4 300 м
[Frnb Ac trans Ci fib]
+29.8 0.0 15 +27 +31 жарко 999.8 1000.0
09 13.08 З 4 4000 м 9/5 600 м
[Cu Sc Ac trans Ci fib]
+30.0 0.0 14 +27 +31 жарко 999.1 999.0
12 13.08 З 4 4000 м 10/5 600 м
[Cu Sc As op]
+29.8 +12.2 34 +27 +27 жарко 998.6 999.0 +30.3
15 13.08 З 4 4000 м 9/5 600 м
[Cu Sc Ac trans]
+28.8 +24.5 78 +41 +41 опасность
перегрева
1000.3 1000.0
18 13.08 ЮЗ 3 4000 м 10/5 600 м
[Cu Sc As op]
+28.4 +24.7 80 +40 +40 очень
душно
1001.6 1002.0
21 13.08 ЮЗ 3 4000 м 10/5 600 м
[Cu Sc As op]
+28.0 +24.6 82 +40 +40 очень
душно
1000.6 1001.0
00 14.08 З 3 4000 м 10/5 600 м
[Cu Sc As op]
+28.0 +12.3 38 +40 +40 очень
душно
1000.7 1001.0
03 14.08 З 3 4000 м 10/5 600 м
[Cu Sc As op]
+28.6 0.0 16 +26 +27 жарко 1002.0 1002.0 +27.3
06 14.08 З 3 4000 м 10/5 600 м
[Cu Sc As op]
+29.6 0.0 15 +27 +29 жарко 1002.9 1003.0
09 14.08 ЮЗ 4 4000 м 9/5 600 м
[Cu Sc Ac trans]
+30.6 0.0 14 +28 +31 жарко 1001.6 1002.0
12 14.08 З 3 4000 м 10/5 600 м
[Cu Sc As op]
+29.2 +12.4 35 +27 +27 жарко 1000.3 1000.0 +30.6
15 14.08 З 3 4000 м 10/5 600 м
[Cu Sc As op Cs]
+28.4 +25.0 82 +41 +41 опасность
перегрева
1001.4 1001.0
18 14.08 З 4 4000 м 10/5 600 м
[Cu Sc As op]
+28.2 +25.4 85 +41 +41 опасность
перегрева
1002.7 1003.0
21 14.08 З 3 4000 м 10/5 600 м
[Cu Sc As op]
+28.0 +25.2 85 +41 +41 опасность
перегрева
1002.1 1002.0
00 15.08 З 3 4000 м 10/5 600 м
[Cu Sc As op]
+28.2 +24.8 82 +40 +40 очень
душно
1001.6 1002.0

 

Местоположение метеостанции Okha (Gujarat, Индия): широта 22.48 долгота 69.12 высота над уровнем моря 7 м.

В архиве по умолчанию представлена погода в Okha за последнюю неделю. Архивные данные за месяц целиком и за предыдущие месяцы, начиная с января 2011 года, Вы можете получить, выбрав интересующий диапазон дат из раскрывающегося списка и нажав кнопку "Ввод!".


*Определитесь, кто Вы:
робот инопланетянин человек

Внимание! Время в таблицах - всемирное. Для получения местного времени необходимо прибавить поправку, которая в Okha равна 5.5 ч.

Смотрите также архив погоды в соседних городах и на ближайших метеорологических станциях:

Погода в Dwarka (Gujarat, Индия) (13 км)
Погода в Mandvi (Gujarat, Индия) (41 км)
Погода в Naliya (Gujarat, Индия) (90 км)
Погода в Bhuj-Rudramata (Gujarat, Индия) (103 км)
Погода в Porbandar (Gujarat, Индия) (108 км)
Погода в Kandla (Gujarat, Индия) (123 км)
Погода в New Kandla (Gujarat, Индия) (127 км)
Погода в Rajkot (Gujarat, Индия) (172 км)
Погода в Veraval (Gujarat, Индия) (218 км)
Погода в Amreli (Gujarat, Индия) (238 км)

Пояснения к столбцам:

Ветер - указаны скорость ветра в м/с - средняя за 10 мин, порывы в срок и между сроками (в фигурных скобках) и направление, откуда дует ветер: С - северный, СВ - северо-восточный, В - восточный, ЮВ - юго-восточный, Ю - южный, ЮЗ - юго-западный, З - западный, СЗ - северо-западный.
Видимость - горизонтальная дальность видимости в метрах или километрах. При видимости от 1 до 10 км при отсутствии осадков обычно наблюдается дымка, при ухудшении видимости до 1 км и менее - туман. В сухую погоду видимость может ухудшаться дымом, пылью или мглою.
Явления - указаны атмосферные явления, наблюдавшиеся в срок или в последний час перед сроком; фигурными скобками обозначены явления, наблюдавшиеся между сроками (за 1-3 часа до срока); квадратными скобками обозначены град или гололедные отложения с указанием их диаметра в мм.
Облачность - указаны через наклонную черту общая и нижняя облачность в баллах и высота нижней границы облаков в метрах; квадратными скобками обозначены формы облаков: Ci - перистые, Cs - перисто-слоистые, Cc - перисто-кучевые, Ac - высококучевые, As - высокослоистые, Sc - слоисто-кучевые, Ns - слоисто-дождевые, Cu - кучевые, Cb - кучево-дождевые. Подробнее классификацию облаков см. в Атласе облаков (PDF).
T - Температура воздуха - температура, измеренная на высоте 2 м над землей.
Td - Температура точки росы - температура, при понижении до которой содержащийся в воздухе водяной пар достигнет насыщения.
f - Относительная влажность воздуха - влажноcть воздуха, измеренная на высоте 2 м над землей.
Te - Эффективная температура - температура, которую ощущает одетый по сезону человек в тени. Характеристика душности погоды. При расчете учитывается влияние влажности воздуха и скорости ветра на теплоощущения человека.
Tes - Эффективная температура на солнце - температура, которую ощущает человек, с поправкой на солнечный нагрев. Характеристика знойности погоды. Зависит от высоты солнца над горизонтом, облачности и скорости ветра. Ночью, в пасмурную погоду, а также при ветре 12 м/с и более поправка равна нулю.
P - Атмосферное давление - приведенное к уровню моря атмосферное давление.
Po - Атмосферное давление - измеренное на уровне метеостанции атмосферное давление.
Tmin - Минимальная температура - минимум температуры воздуха на высоте 2 м над землей.
Tmax - Максимальная температура - максимум температуры воздуха на высоте 2 м над землей.
R - Количество осадков - Количество выпавших осадков за период времени, мм. При наведении курсора мыши на число - период времени, за который выпало указанное количество осадков.
R24 - Количество осадков - Количество выпавших осадков за 24 часа, мм.
S - Снежный покров - Высота снежного покрова, см. При наведении курсора мыши на число - состояние снежного покрова и степень покрытия местности в баллах.